Flag for Norway Weather past 2 weeks in Lillehammer, Norway

Now
47 °F

Cool.


Feels Like: 47 °F
Forecast: 41 / 57 °F
Wind: 1 mph from South

Location: Lillehammer-Saetherengen

Current Time: Oct 1, 2014 at 6:41:29 PM

Latest Report: Oct 1, 2014 at 6:00 PM


Visibility: N/A

Pressure: 30.22 "Hg

Humidity: 75%

Dew point: 40 °F

Location of LillehammerLocation

Historic Weather in Lillehammer — Graph

°F

Lillehammer temperature yesterday

Maximum temperature yesterday: 50 °F (at 5:00 PM)
Minimum temperature yesterday: 33 °F (at 8:00 AM)
Average temperature yesterday: 41 °F

Past Weeks' High & Low Weather Summary

 TemperatureHumidityPressure
High65 °F (Sep 16, 5:00 PM)96% (Sep 17, 7:00 AM)30.35 "Hg (Sep 17, 7:00 AM)
Low33 °F (Sep 23, 4:00 AM)34% (Sep 26, 5:00 PM)29.35 "Hg (Sep 26, 12:00 PM)
Average48 °F76%29.96 "Hg
* Reported Sep 16 5:00 PM — Oct 1 5:00 PM, Lillehammer, Weather by CustomWeather, © 2014

Note: Actual official high and low records may vary slightly from our data, if they occured in-between our weather recording intervals... More about our weather records

Advertising

Lillehammer weather history for previous 24 hours

 ConditionsComfort  
Time TempWeatherWind HumidityBarometerVisibility
5:00 PM
Oct 1
48 °FCool.2 mph76%30.24 "HgN/A
4:00 PM49 °FCool.2 mph71%30.25 "HgN/A
3:00 PM51 °FCool.3 mph70%30.25 "HgN/A
2:00 PM50 °FCool.2 mph74%30.28 "HgN/A
1:00 PM49 °FCool.2 mph79%30.29 "HgN/A
12:00 PM46 °FCool.2 mph89%30.30 "HgN/A
11:00 AM46 °FCool.1 mph88%30.31 "HgN/A
10:00 AM46 °FCool.1 mph89%30.32 "HgN/A
9:00 AM44 °FQuite cool.1 mph91%30.32 "HgN/A
8:00 AM43 °FQuite cool.1 mph92%30.32 "HgN/A
7:00 AM43 °FQuite cool.1 mph92%30.32 "HgN/A
6:00 AM42 °FQuite cool.1 mph93%30.33 "HgN/A
5:00 AM41 °FQuite cool.No wind92%30.34 "HgN/A
4:00 AM41 °FQuite cool.1 mph91%30.34 "HgN/A
3:00 AM45 °FQuite cool.1 mph87%30.34 "HgN/A
2:00 AM46 °FCool.1 mph86%30.34 "HgN/A
1:00 AM45 °FCool.1 mph86%30.34 "HgN/A
12:00 AM45 °FCool.No wind86%30.34 "HgN/A
11:00 PM
Sep 30
45 °FCool.1 mph84%30.33 "HgN/A
10:00 PM45 °FQuite cool.No wind83%30.33 "HgN/A
9:00 PM46 °FCool.1 mph78%30.32 "HgN/A
8:00 PM46 °FCool.No wind79%30.32 "HgN/A
7:00 PM47 °FCool.1 mph79%30.31 "HgN/A
6:00 PM49 °FCool.No wind74%30.31 "HgN/A
Weather by CustomWeather, © 2014

See weather overviewHow to use our weather pages